World > North America > United States > Texas

Gordon, Texas Regional Weather

Lat: 32.55N, Lon: 98.37W
Wx Zone: TXZ116Web Search
Gordon Weather Warning NWS WEATHER ALERT FOR THE GORDON, TX AREA - Issued: 402 AM CDT Sat Apr 10 2021 Gordon Weather Warning  

If you are on your PC, you can easily pass this page to your phone by scanning the QR Code near the bottom with your camera.

Feedback


°F Click to change Gordon hourly weather to Imperial units.Click to change Gordon hourly weather to Metric units. °C
Gordon Weather Map
UTC Time: 4/10/2021, 11:49
Your Time:

Gordon, TX Regional Weather

Expires:202104101200;;327735
ASUS44 KFWD 101115
RWRTX 
NORTH TEXAS HOURLY WEATHER ROUNDUP
NATIONAL WEATHER SERVICE FORT WORTH TX
600 AM CDT SAT APR 10 2021

NOTE: "FAIR" INDICATES FEW OR NO CLOUDS BELOW 12,000 FEET WITH NO
SIGNIFICANT WEATHER AND/OR OBSTRUCTIONS TO VISIBILITY.


TXZ083>090-098>101-113>116-127>130-139>142-154-155-101200-
WESTERN NORTH TEXAS
  
CITY           SKY/WX    TMP DP  RH WIND       PRES   REMARKS
WICHITA FALLS  FAIR      43  35  73 NW9       29.94S WCI  38          
WF-KICKAPOO    FAIR      48  34  58 N9        29.96R                  
VERNON         FAIR      40  34  77 W6        29.99R WCI  36          
ABILENE        FAIR      46  34  62 N5        29.98R                  
ABILENE-DYESS  FAIR      44  28  54 NW6       29.98R                  
BRECKENRIDGE   FAIR      44  37  73 NW3       29.97R                  
CISCO          CLOUDY    45  36  70 NW8       29.94R                  
EASTLAND       FAIR      44  35  68 N7        29.95R                  
RANGER         FAIR      47  35  63 N8        29.95R                  
MINERAL WELLS  FAIR      48  35  60 NW10      29.91R                  
STEPHENVILLE   FAIR      50  36  59 N12G17    29.94S                  
COMANCHE       FAIR      49  37  64 N10       29.95R                  
BROWNWOOD      CLOUDY    50  36  57 MISG      29.95R                  
COLEMAN        FAIR      48  33  57 N10       29.96R                  
BRADY          CLOUDY    50  36  57 N10       29.93R                  
$$


SKY/WX - Weather  TMP - Temperature  DP - Dew Point  RH - Relative Humidity
WIND - Wind Direction/Speed PRES - Barometric Pressure VSB - Visibility
WCI - Wind Chill Index E13G22 Wind - East Wind 13 mph/Gusts of 22 mph